SCP
-0 -0 -0 -0 -0 -0 -0 -0 -0 -0 -0 0 -0 0 -0 -0 -0 -0 -0 -0 -0 -0 -0 -0 -0 -0 -0 -0 -0 -0 -0 -0 -0 -0 -0 -0 0 0 0 0 0 0 0
0 0 -0 -0 -0 -0 -0 -0 -0 -0 0 -0 -0 -0 0 -0 -0 -0 -0 -0 -0 -0 -0 -0 -0 -0 -0 -0 -0 -0 -0 -0 -0 0 0 0 0 0 0 0 0 0 0
0 0 0 -0 -0 0 0 -0 -0 -0 -0 0 -0 -0 0 0 -0 -0 -0 -0 -0 -0 -0 -0 -0 -0 -0 -0 -0 -0 -0 0 0 0 0 0 0 0 0 0 0 0 0
0 0 0 0 0 0 0 0 -0 -0 0 -0 -0 -0 -0 0 0 -0 -0 -0 -0 -0 -0 -0 -0 -0 -0 -0 -0 0 0 0 0 0 0 -0 0 0 0 -0 -0 -0 -0
0 0 0 0 0 0 0 0 0 0 -0 -0 -0 -0 -0 -0 0 0 -0 -0 -0 -0 -0 -0 -0 -0 -0 -0 0 0 0 0 0 0 0 0 -0 0 0 -0 -0 -0 -0
0 0 0 -0 -0 -0 -0 -0 -0 -0 -0 -0 -0 -0 -0 0 0 0 -0 -0 -0 -0 -0 -0 -0 -0 0 0 0 0 0 0 0 0 0 0 0 0 -0 -0 -0 0 0
0 0 0 -0 -0 0 -0 -0 -0 -0 -0 -0 -0 -0 -0 -0 -0 -0 -0 -0 -0 -0 -0 -0 -0 0 0 0 0 0 0 0 0 0 0 0 0 0 0 0 0 0 0
0 0 -0 -0 0 0 0 -0 -0 -0 -0 0 0 0 -0 -0 -0 -0 0 0 0 0 0 0 0 0 0 0 0 0 0 0 0 0 0 0 0 0 0 0 0 0 0
0 0 -0 0 0 0 0 0 -0 -0 0 0 0 0 0 -0 0 0 0 0 0 0 0 0 0 0 0 0 0 0 0 0 0 0 0 0 0 0 0 0 0 0 0
0 0 0 0 0 0 0 0 0 0 0 -0 0 0 0 0 0 0 0 0 0 0 0 0 0 0 0 0 0 0 0 0 0 0 0 0 0 0 0 0 0 0 0
0 0 0 0 0 0 0 0 0 0 0 0 0 0 -0 0 0 0 0 0 0 0 0 0 0 0 0 0 0 0 0 0 0 0 0 0 0 0 0 0 0 0 0
0 0 0 0 0 0 0 0 0 0 0 0 0 0 0 0 0 0 0 0 0 0 0 0 0 0 0 0 0 0 0 0 0 0 0 0 0 0 0 0 0 0 0
0 0 0 0 0 0 0 0 0 0 0 0 0 0 0 0 0 0 0 0 0 0 0 0 0 0 0 0 0 0 0 0 0 0 0 0 0 0 0 0 0 0 0
0 0 0 0 0 0 0 0 0 0 0 0 0 0 0 0 0 0 0 0 0 0 0 0 0 0 0 0 0 0 0 0 0 0 0 0 0 0 0 0 0 0 0
0 0 0 0 0 0 0 0 0 0 0 0 0 0 0 0 0 0 0 0 0 0 0 0 0 0 0 0 0 0 0 0 0 0 0 0 0 0 0 0 0 0 0
-0 0 0 0 0 0 0 0 0 0 0 0 0 0 0 0 0 0 0 0 0 0 0 0 0 0 0 0 0 0 0 0 0 0 0 0 0 0 0 0 0 0 0
0 0 0 0 0 0 0 0 0 0 0 0 0 0 0 0 0 0 0 0 0 0 0 0 0 0 0 0 0 0 0 0 0 0 0 0 0 0 0 0 0 0 0
0 0 0 0 0 0 0 0 0 0 0 0 0 0 0 0 0 0 0 0 0 0 0 0 0 0 0 0 0 0 0 0 0 0 0 0 0 0 0 0 0 0 0
0 0 0 0 0 0 0 0 0 0 0 0 0 0 0 0 0 0 0 0 0 0 0 0 0 0 0 0 0 0 0 0 0 0 0 0 0 0 0 0 0 0 0
0 0 0 0 0 0 0 0 0 0 0 0 0 0 0 0 0 0 0 0 0 0 0 0 0 0 0 0 0 0 0 0 0 0 0 0 0 0 0 0 0 0 0
0 0 0 0 0 0 0 0 0 0 0 0 0 0 0 0 0 0 0 0 0 0 0 0 0 0 0 0 0 0 0 0 0 0 0 0 0 0 0 0 0 0 0
0 0 0 0 0 0 0 0 0 0 0 0 0 0 0 0 0 0 0 0 0 0 0 0 0 0 0 0 0 0 0 0 0 0 0 0 0 0 0 0 0 0 0
0 0 0 0 0 0 0 0 0 0 0 0 0 0 0 0 0 0 0 0 0 0 0 0 0 0 0 0 0 0 0 0 0 0 0 0 0 0 0 0 0 0 0
0 0 0 0 0 0 0 0 0 0 0 0 0 0 0 0 0 0 0 0 0 0 0 0 0 0 0 0 0 0 0 0 0 0 0 0 0 0 0 0 0 0 0
0 0 0 0 0 0 0 0 0 0 0 0 0 0 0 0 0 0 0 0 0 0 0 0 0 0 0 0 0 0 0 0 0 0 0 0 0 0 0 0 0 0 0
0 0 0 0 0 0 0 0 0 0 0 0 0 0 0 0 0 0 0 0 0 0 0 0 0 0 0 0 0 0 0 0 0 0 0 0 0 0 0 0 0 0 0
Wind_Speed_500mb
42 40 32 29 22 14 13 14 1 16 18 25 24 17 27 15 17 8 11 22 33 31 27 24 22 22 21 22 27 29 30 36 42 45 44 43 45 45 46 45 47 46 44
44 40 31 32 18 24 22 14 12 18 17 22 24 20 28 22 21 5 20 21 21 21 21 19 13 10 16 18 18 22 27 30 34 35 35 35 37 33 35 36 38 40 38
44 35 38 28 14 26 18 11 18 16 17 20 23 22 20 17 18 21 20 24 19 17 13 11 13 17 23 23 20 19 23 24 21 18 17 19 25 23 22 19 21 21 20
39 35 32 23 20 27 20 18 20 11 15 20 17 18 17 20 21 20 26 29 25 17 13 16 6 5 17 22 22 19 19 22 20 19 20 14 12 13 11 10 10 8 6
36 29 25 25 24 24 23 21 18 12 21 20 17 20 19 16 22 23 28 29 26 23 22 22 20 18 16 14 15 15 23 19 16 15 17 16 10 11 12 10 8 6 5
35 29 27 24 23 19 22 21 15 18 19 15 17 13 19 20 19 18 23 28 20 23 26 26 23 18 18 19 18 15 23 20 21 19 20 21 12 18 15 10 11 10 9
34 29 23 20 22 21 20 18 17 17 19 15 17 14 14 15 18 19 21 22 24 21 20 20 21 19 20 19 19 26 23 22 18 21 22 25 23 20 25 26 22 16 11
30 30 30 23 26 20 17 14 17 17 14 17 12 14 16 14 15 16 19 19 18 20 20 21 20 19 20 22 24 26 26 26 19 21 30 17 23 21 25 20 25 24 25
29 32 30 23 27 23 17 16 14 17 16 14 11 10 12 14 17 18 19 17 17 18 18 19 19 18 19 20 21 21 21 20 17 18 18 17 20 20 21 24 23 23 22
28 26 25 27 23 21 23 18 17 14 11 7 8 11 13 13 16 16 17 14 16 17 17 17 16 15 15 16 18 19 19 18 14 16 13 15 22 17 16 21 20 18 19
31 27 24 22 24 18 25 20 18 17 17 13 9 10 12 10 10 11 9 13 14 12 12 14 14 13 13 11 10 13 13 12 13 13 11 12 17 17 17 16 16 16 16
36 32 27 25 24 28 25 26 19 13 16 12 11 6 8 8 8 9 7 7 5 6 7 9 10 10 10 7 5 7 7 8 9 10 9 9 15 16 15 15 15 14 16
33 33 30 28 25 24 21 19 18 21 11 12 8 7 8 9 7 7 5 4 4 5 4 5 5 5 5 7 6 6 7 7 7 7 7 11 13 17 16 15 15 16 15
34 34 32 30 27 26 22 21 18 17 16 13 11 9 10 10 10 8 6 6 6 7 6 6 6 6 7 8 8 8 8 8 8 8 10 11 13 14 17 16 15 14 14
32 32 34 32 29 27 25 22 21 19 17 14 14 11 12 14 13 12 9 8 8 8 9 9 9 10 10 11 10 10 10 10 11 11 12 12 13 14 16 17 17 15 16
29 32 33 32 29 28 25 23 21 20 18 17 15 14 13 15 15 14 13 12 11 11 11 11 11 13 13 14 13 13 13 13 14 14 14 14 15 15 16 18 19 18 18
29 30 33 31 31 29 26 23 21 19 18 17 16 15 15 17 17 15 15 15 15 15 13 13 12 14 14 16 16 16 17 16 18 17 18 18 18 17 19 20 20 20 21
31 33 32 33 31 27 26 23 20 19 17 17 18 15 14 16 18 19 18 19 20 18 16 15 14 15 16 17 17 16 19 21 20 21 21 21 21 20 22 23 22 23 23
32 33 34 32 31 28 26 24 23 22 19 19 19 17 14 16 17 18 20 21 22 22 20 18 18 18 18 18 20 20 22 23 23 25 24 25 25 25 25 26 26 26 26
34 34 33 34 32 30 28 27 26 26 25 24 21 20 19 18 19 19 20 22 22 23 23 21 19 20 22 22 23 24 24 25 27 28 28 29 28 28 29 29 29 28 28
28 33 33 33 33 34 34 31 27 23 21 21 19 19 20 19 19 19 19 21 22 23 24 24 22 23 23 23 23 18 23 26 30 32 33 33 34 32 33 34 32 31 30
17 28 30 30 31 33 33 31 27 20 19 16 16 16 19 21 22 22 22 23 24 25 25 27 26 24 24 24 16 15 9 15 22 31 36 38 36 38 37 36 36 34 33
7 16 24 26 27 28 29 32 32 28 26 22 18 14 12 15 19 23 24 26 27 29 28 28 29 29 24 24 23 16 8 10 9 15 22 36 38 40 40 38 38 38 36
29 15 14 20 23 25 24 24 26 27 23 21 20 20 19 19 19 21 24 27 29 31 30 31 31 32 34 30 26 31 31 26 8 7 13 11 31 38 38 41 39 40 41
42 31 20 13 16 21 21 22 22 23 23 24 25 23 22 19 18 19 20 25 28 32 31 31 34 36 38 36 29 24 30 33 31 24 21 17 21 24 37 45 46 46 45
55 52 41 28 20 10 5 10 16 20 22 23 24 26 27 27 26 26 25 25 26 29 30 32 34 38 39 40 40 38 34 24 21 27 29 29 27 29 36 37 40 45 48
Wind_Direction_500mb
156 154 149 143 144 170 163 147 130 107 89 103 112 100 76 86 139 175 149 142 101 102 104 108 131 146 132 120 116 120 131 127 119 115 112 111 109 110 109 106 104 108 107
154 148 141 140 157 154 133 119 101 104 93 97 109 103 80 94 110 128 199 166 116 106 109 123 125 172 155 157 158 141 128 124 124 119 114 112 108 110 117 113 116 117 119
149 143 137 162 162 143 137 119 115 112 100 101 105 112 88 101 107 76 106 154 143 117 117 146 193 214 192 186 184 166 151 137 131 118 99 116 121 119 130 128 124 124 121
150 142 157 174 164 163 136 120 131 128 107 108 110 108 103 92 93 92 102 134 164 155 168 190 147 117 138 163 178 180 164 151 140 120 94 84 118 153 158 164 159 167 162
153 147 161 153 163 153 149 146 152 151 130 110 106 114 108 98 95 89 90 121 145 155 167 129 125 110 129 135 144 158 153 156 144 101 97 95 93 174 196 197 204 185 163
155 145 163 142 145 147 158 158 161 122 119 128 117 116 113 114 105 101 96 99 102 100 115 129 120 108 101 106 105 134 159 144 109 105 84 121 103 104 112 178 196 189 189
158 154 161 144 148 163 152 173 151 140 138 127 134 129 113 121 124 108 103 99 105 99 99 96 114 110 101 112 111 116 136 142 109 99 101 98 88 94 98 98 104 113 148
163 159 162 168 169 170 179 174 147 142 135 140 152 143 129 115 122 111 105 104 111 124 120 115 113 109 101 103 111 109 114 122 99 103 100 93 112 99 102 96 114 109 107
161 163 157 170 179 181 182 166 166 151 167 169 157 150 141 124 117 112 107 107 108 113 114 113 119 119 115 115 120 117 125 127 107 112 106 109 128 122 118 114 109 103 102
166 159 163 185 174 164 170 182 172 185 170 155 152 150 133 122 118 110 96 108 110 106 110 114 117 121 122 123 121 119 121 124 125 117 109 138 122 108 106 120 112 105 105
176 177 174 179 172 178 185 183 187 208 187 179 159 124 112 124 124 115 121 126 122 117 117 118 116 114 113 111 110 113 114 121 127 128 122 143 132 138 135 131 128 129 124
186 184 183 179 185 173 201 181 200 186 177 169 165 148 156 156 155 141 132 125 106 115 114 110 107 107 110 118 121 123 127 143 140 148 158 152 145 140 139 144 143 150 136
191 193 189 189 185 184 183 188 207 173 201 192 204 207 198 181 172 158 155 151 153 151 149 147 115 117 155 164 166 177 184 178 171 178 187 178 175 161 156 157 163 155 144
195 197 197 196 195 192 189 192 196 200 208 210 223 225 211 197 195 189 198 198 193 191 189 194 196 208 210 203 203 208 207 209 207 210 220 204 186 185 175 170 179 166 167
200 201 201 204 201 199 200 202 207 209 216 218 236 235 225 219 220 222 226 219 217 218 217 221 226 226 225 217 216 223 223 225 229 226 231 219 207 200 197 190 190 186 189
202 203 202 207 209 205 204 210 209 212 218 224 236 240 237 230 224 232 240 230 235 238 237 234 235 234 232 228 227 231 230 232 238 240 240 241 228 214 210 212 207 204 204
215 206 206 209 211 212 212 213 217 221 223 227 233 242 239 234 226 232 240 246 251 250 249 245 244 245 243 242 237 242 242 242 244 248 247 242 237 229 226 222 218 217 217
221 213 212 212 212 212 213 217 220 223 225 225 229 242 241 235 236 239 246 251 254 254 252 250 249 251 249 249 248 254 249 250 247 249 250 247 243 238 234 231 228 228 227
225 218 218 220 217 215 212 215 221 223 225 227 232 239 248 245 242 243 248 252 255 255 252 252 255 253 255 260 254 254 255 253 249 252 253 252 248 242 239 237 234 234 234
224 217 218 222 219 217 216 218 224 227 229 232 236 240 243 248 245 243 246 248 254 254 252 250 256 259 256 259 260 261 260 259 256 253 253 251 249 244 241 239 237 236 239
214 214 216 216 215 217 218 221 228 235 240 246 250 252 253 256 260 258 259 261 262 260 253 249 253 258 263 265 275 283 273 263 260 256 250 248 247 242 242 242 239 238 241
201 208 211 216 219 223 224 226 229 234 239 245 252 255 257 258 259 259 258 258 260 261 259 254 253 258 259 262 261 278 281 269 259 254 250 245 244 241 240 241 239 239 242
85 195 204 213 215 223 228 233 239 243 252 256 257 261 273 274 266 263 259 261 264 262 262 260 258 256 255 262 254 238 269 249 295 268 258 245 241 242 239 238 239 239 241
57 92 165 193 205 212 221 232 244 250 253 260 263 273 277 279 284 278 269 260 259 265 263 263 260 259 257 256 260 252 247 254 277 272 282 269 244 245 242 240 241 243 242
61 73 89 131 173 191 199 211 226 239 252 256 266 267 268 272 276 277 275 267 264 262 264 264 266 263 260 256 250 252 255 255 254 250 265 261 271 255 244 245 246 246 246
59 65 74 84 96 110 163 213 228 234 239 246 252 258 262 258 258 259 265 271 272 270 267 264 261 261 261 260 256 255 250 247 255 249 254 263 265 249 255 254 248 247 246
Wind_Speed_850mb
42 40 32 29 22 14 13 14 1 16 18 25 24 17 27 15 17 8 11 22 33 31 27 24 22 22 21 22 27 29 30 36 42 45 44 43 45 45 46 45 47 46 44
44 40 31 32 18 24 22 14 12 18 17 22 24 20 28 22 21 5 20 21 21 21 21 19 13 10 16 18 18 22 27 30 34 35 35 35 37 33 35 36 38 40 38
44 35 38 28 14 26 18 11 18 16 17 20 23 22 20 17 18 21 20 24 19 17 13 11 13 17 23 23 20 19 23 24 21 18 17 19 25 23 22 19 21 21 20
39 35 32 23 20 27 20 18 20 11 15 20 17 18 17 20 21 20 26 29 25 17 13 16 6 5 17 22 22 19 19 22 20 19 20 14 12 13 11 10 10 8 6
36 29 25 25 24 24 23 21 18 12 21 20 17 20 19 16 22 23 28 29 26 23 22 22 20 18 16 14 15 15 23 19 16 15 17 16 10 11 12 10 8 6 5
35 29 27 24 23 19 22 21 15 18 19 15 17 13 19 20 19 18 23 28 20 23 26 26 23 18 18 19 18 15 23 20 21 19 20 21 12 18 15 10 11 10 9
34 29 23 20 22 21 20 18 17 17 19 15 17 14 14 15 18 19 21 22 24 21 20 20 21 19 20 19 19 26 23 22 18 21 22 25 23 20 25 26 22 16 11
30 30 30 23 26 20 17 14 17 17 14 17 12 14 16 14 15 16 19 19 18 20 20 21 20 19 20 22 24 26 26 26 19 21 30 17 23 21 25 20 25 24 25
29 32 30 23 27 23 17 16 14 17 16 14 11 10 12 14 17 18 19 17 17 18 18 19 19 18 19 20 21 21 21 20 17 18 18 17 20 20 21 24 23 23 22
28 26 25 27 23 21 23 18 17 14 11 7 8 11 13 13 16 16 17 14 16 17 17 17 16 15 15 16 18 19 19 18 14 16 13 15 22 17 16 21 20 18 19
31 27 24 22 24 18 25 20 18 17 17 13 9 10 12 10 10 11 9 13 14 12 12 14 14 13 13 11 10 13 13 12 13 13 11 12 17 17 17 16 16 16 16
36 32 27 25 24 28 25 26 19 13 16 12 11 6 8 8 8 9 7 7 5 6 7 9 10 10 10 7 5 7 7 8 9 10 9 9 15 16 15 15 15 14 16
33 33 30 28 25 24 21 19 18 21 11 12 8 7 8 9 7 7 5 4 4 5 4 5 5 5 5 7 6 6 7 7 7 7 7 11 13 17 16 15 15 16 15
34 34 32 30 27 26 22 21 18 17 16 13 11 9 10 10 10 8 6 6 6 7 6 6 6 6 7 8 8 8 8 8 8 8 10 11 13 14 17 16 15 14 14
32 32 34 32 29 27 25 22 21 19 17 14 14 11 12 14 13 12 9 8 8 8 9 9 9 10 10 11 10 10 10 10 11 11 12 12 13 14 16 17 17 15 16
29 32 33 32 29 28 25 23 21 20 18 17 15 14 13 15 15 14 13 12 11 11 11 11 11 13 13 14 13 13 13 13 14 14 14 14 15 15 16 18 19 18 18
29 30 33 31 31 29 26 23 21 19 18 17 16 15 15 17 17 15 15 15 15 15 13 13 12 14 14 16 16 16 17 16 18 17 18 18 18 17 19 20 20 20 21
31 33 32 33 31 27 26 23 20 19 17 17 18 15 14 16 18 19 18 19 20 18 16 15 14 15 16 17 17 16 19 21 20 21 21 21 21 20 22 23 22 23 23
32 33 34 32 31 28 26 24 23 22 19 19 19 17 14 16 17 18 20 21 22 22 20 18 18 18 18 18 20 20 22 23 23 25 24 25 25 25 25 26 26 26 26
34 34 33 34 32 30 28 27 26 26 25 24 21 20 19 18 19 19 20 22 22 23 23 21 19 20 22 22 23 24 24 25 27 28 28 29 28 28 29 29 29 28 28
28 33 33 33 33 34 34 31 27 23 21 21 19 19 20 19 19 19 19 21 22 23 24 24 22 23 23 23 23 18 23 26 30 32 33 33 34 32 33 34 32 31 30
17 28 30 30 31 33 33 31 27 20 19 16 16 16 19 21 22 22 22 23 24 25 25 27 26 24 24 24 16 15 9 15 22 31 36 38 36 38 37 36 36 34 33
7 16 24 26 27 28 29 32 32 28 26 22 18 14 12 15 19 23 24 26 27 29 28 28 29 29 24 24 23 16 8 10 9 15 22 36 38 40 40 38 38 38 36
29 15 14 20 23 25 24 24 26 27 23 21 20 20 19 19 19 21 24 27 29 31 30 31 31 32 34 30 26 31 31 26 8 7 13 11 31 38 38 41 39 40 41
42 31 20 13 16 21 21 22 22 23 23 24 25 23 22 19 18 19 20 25 28 32 31 31 34 36 38 36 29 24 30 33 31 24 21 17 21 24 37 45 46 46 45
55 52 41 28 20 10 5 10 16 20 22 23 24 26 27 27 26 26 25 25 26 29 30 32 34 38 39 40 40 38 34 24 21 27 29 29 27 29 36 37 40 45 48
Wind_Direction_850mb
156 154 149 143 144 170 163 147 130 107 89 103 112 100 76 86 139 175 149 142 101 102 104 108 131 146 132 120 116 120 131 127 119 115 112 111 109 110 109 106 104 108 107
154 148 141 140 157 154 133 119 101 104 93 97 109 103 80 94 110 128 199 166 116 106 109 123 125 172 155 157 158 141 128 124 124 119 114 112 108 110 117 113 116 117 119
149 143 137 162 162 143 137 119 115 112 100 101 105 112 88 101 107 76 106 154 143 117 117 146 193 214 192 186 184 166 151 137 131 118 99 116 121 119 130 128 124 124 121
150 142 157 174 164 163 136 120 131 128 107 108 110 108 103 92 93 92 102 134 164 155 168 190 147 117 138 163 178 180 164 151 140 120 94 84 118 153 158 164 159 167 162
153 147 161 153 163 153 149 146 152 151 130 110 106 114 108 98 95 89 90 121 145 155 167 129 125 110 129 135 144 158 153 156 144 101 97 95 93 174 196 197 204 185 163
155 145 163 142 145 147 158 158 161 122 119 128 117 116 113 114 105 101 96 99 102 100 115 129 120 108 101 106 105 134 159 144 109 105 84 121 103 104 112 178 196 189 189
158 154 161 144 148 163 152 173 151 140 138 127 134 129 113 121 124 108 103 99 105 99 99 96 114 110 101 112 111 116 136 142 109 99 101 98 88 94 98 98 104 113 148
163 159 162 168 169 170 179 174 147 142 135 140 152 143 129 115 122 111 105 104 111 124 120 115 113 109 101 103 111 109 114 122 99 103 100 93 112 99 102 96 114 109 107
161 163 157 170 179 181 182 166 166 151 167 169 157 150 141 124 117 112 107 107 108 113 114 113 119 119 115 115 120 117 125 127 107 112 106 109 128 122 118 114 109 103 102
166 159 163 185 174 164 170 182 172 185 170 155 152 150 133 122 118 110 96 108 110 106 110 114 117 121 122 123 121 119 121 124 125 117 109 138 122 108 106 120 112 105 105
176 177 174 179 172 178 185 183 187 208 187 179 159 124 112 124 124 115 121 126 122 117 117 118 116 114 113 111 110 113 114 121 127 128 122 143 132 138 135 131 128 129 124
186 184 183 179 185 173 201 181 200 186 177 169 165 148 156 156 155 141 132 125 106 115 114 110 107 107 110 118 121 123 127 143 140 148 158 152 145 140 139 144 143 150 136
191 193 189 189 185 184 183 188 207 173 201 192 204 207 198 181 172 158 155 151 153 151 149 147 115 117 155 164 166 177 184 178 171 178 187 178 175 161 156 157 163 155 144
195 197 197 196 195 192 189 192 196 200 208 210 223 225 211 197 195 189 198 198 193 191 189 194 196 208 210 203 203 208 207 209 207 210 220 204 186 185 175 170 179 166 167
200 201 201 204 201 199 200 202 207 209 216 218 236 235 225 219 220 222 226 219 217 218 217 221 226 226 225 217 216 223 223 225 229 226 231 219 207 200 197 190 190 186 189
202 203 202 207 209 205 204 210 209 212 218 224 236 240 237 230 224 232 240 230 235 238 237 234 235 234 232 228 227 231 230 232 238 240 240 241 228 214 210 212 207 204 204
215 206 206 209 211 212 212 213 217 221 223 227 233 242 239 234 226 232 240 246 251 250 249 245 244 245 243 242 237 242 242 242 244 248 247 242 237 229 226 222 218 217 217
221 213 212 212 212 212 213 217 220 223 225 225 229 242 241 235 236 239 246 251 254 254 252 250 249 251 249 249 248 254 249 250 247 249 250 247 243 238 234 231 228 228 227
225 218 218 220 217 215 212 215 221 223 225 227 232 239 248 245 242 243 248 252 255 255 252 252 255 253 255 260 254 254 255 253 249 252 253 252 248 242 239 237 234 234 234
224 217 218 222 219 217 216 218 224 227 229 232 236 240 243 248 245 243 246 248 254 254 252 250 256 259 256 259 260 261 260 259 256 253 253 251 249 244 241 239 237 236 239
214 214 216 216 215 217 218 221 228 235 240 246 250 252 253 256 260 258 259 261 262 260 253 249 253 258 263 265 275 283 273 263 260 256 250 248 247 242 242 242 239 238 241
201 208 211 216 219 223 224 226 229 234 239 245 252 255 257 258 259 259 258 258 260 261 259 254 253 258 259 262 261 278 281 269 259 254 250 245 244 241 240 241 239 239 242
85 195 204 213 215 223 228 233 239 243 252 256 257 261 273 274 266 263 259 261 264 262 262 260 258 256 255 262 254 238 269 249 295 268 258 245 241 242 239 238 239 239 241
57 92 165 193 205 212 221 232 244 250 253 260 263 273 277 279 284 278 269 260 259 265 263 263 260 259 257 256 260 252 247 254 277 272 282 269 244 245 242 240 241 243 242
61 73 89 131 173 191 199 211 226 239 252 256 266 267 268 272 276 277 275 267 264 262 264 264 266 263 260 256 250 252 255 255 254 250 265 261 271 255 244 245 246 246 246
59 65 74 84 96 110 163 213 228 234 239 246 252 258 262 258 258 259 265 271 272 270 267 264 261 261 261 260 256 255 250 247 255 249 254 263 265 249 255 254 248 247 246